Regional Weather Roundup
Issued by NWS Portland, ME

Current Version | Previous Version | Text Only | Print | Product List | Glossary Off
Versions: 1 2 3 4 5 6 7 8 9 10 11 12 13 14 15 16 17 18 19 20 21 22 23 24 25 26 27 28 29 30 31 32 33 34 35 36 37 38 39 40 41 42 43 44 45 46 47 48 49 50
000 ASUS41 KGYX 281810 RWRGYX WEATHER ROUNDUP FOR MAINE AND NEW HAMPSHIRE NATIONAL WEATHER SERVICE GRAY ME 200 PM EDT FRI APR 28 2017 MEZ002-005-006-010-012-015-018-020-021-024-026-027-029-281900- MAINE CITY SKY/WX TMP DP RH WIND PRES REMARKS PORTLAND MOSUNNY 63 55 75 E8 29.93F 6HR MIN TEMP: 52; 6HR MAX TEMP: 64; 6HR PCP: TRACE; SANFORD MOSUNNY 76 61 59 VRB7 29.92F BAR HARBOR LGT RAIN 50 49 96 CALM 29.97S VSB 1 WISCASSET PTSUNNY 60 56 86 VRB5 29.94F 6HR MIN TEMP: 50; 6HR MAX TEMP: 62; 6HR PCP: TRACE; ROCKLAND CLOUDY 50 50 100 SE5 29.96S FOG FRYEBURG MOSUNNY 74 59 59 NE3 29.91F 6HR MIN TEMP: 57; 6HR MAX TEMP: 75; LEWISTONAUBURN MOSUNNY 68 58 70 S7 29.92F AUGUSTA MOSUNNY 64 55 72 E6 29.92F 6HR MIN TEMP: 50; 6HR MAX TEMP: 64; WATERVILLE MOSUNNY 64 58 80 VRB3 29.89F BANGOR CLOUDY 61 55 81 S8 29.94F 6HR MIN TEMP: 49; 6HR MAX TEMP: 61; GREENVILLE N/A 54 54 100 SE7 29.91F 6HR MIN TEMP: 50; 6HR MAX TEMP: 54; MILLINOCKET CLOUDY 56 55 97 S5 29.94S 6HR MIN TEMP: 51; 6HR MAX TEMP: 58; HOULTON CLOUDY 57 56 96 S5 29.92R 6HR MIN TEMP: 45; 6HR MAX TEMP: 57; 6HR PCP: TRACE; PRESQUE ISLE CLOUDY 59 53 80 SE8 29.91S 6HR MIN TEMP: 46; 6HR MAX TEMP: 59; FRENCHVILLE FOG 52 50 93 SE7 29.89S VSB 1/4 6HR MIN TEMP: 40; 6HR MAX TEMP: 52; 6HR PCP: 0.01; CARIBOU CLOUDY 59 52 77 SE9 29.90S 6HR MIN TEMP: 48; 6HR MAX TEMP: 59; 6HR PCP: TRACE; $$ NHZ002-005-008-009-011-012-014-281900- NEW HAMPSHIRE CITY SKY/WX TMP DP RH WIND PRES REMARKS PORTSMOUTH PTSUNNY 73 59 60 SW7 29.92F ROCHESTER MOSUNNY 78 60 53 VRB3 29.91F 6HR MIN TEMP: 53; 6HR MAX TEMP: 78; NASHUA PTSUNNY 78 63 59 VRB3 29.94R MANCHESTER PTSUNNY 78 58 49 CALM 29.92S 6HR MIN TEMP: 59; 6HR MAX TEMP: 79; CONCORD MOSUNNY 78 60 53 VRB5 29.93S 6HR MIN TEMP: 58; 6HR MAX TEMP: 79; LACONIA CLOUDY 73 59 61 SW5 29.93S PLYMOUTH FAIR 75 55 49 W7 29.92S BERLIN PTSUNNY 77 52 41 W10 29.91S 6HR MIN TEMP: 59; 6HR MAX TEMP: 78; WHITEFIELD PTSUNNY 76 54 46 W10 29.91F 6HR MIN TEMP: 63; 6HR MAX TEMP: 76; JAFFREY PTSUNNY 77 58 51 W7G16 29.98R 6HR MIN TEMP: 59; 6HR MAX TEMP: 77; KEENE MOSUNNY 77 57 50 SW9 29.96R LEBANON CLOUDY 77 51 40 W9G21 29.94S 6HR MIN TEMP: 63; 6HR MAX TEMP: 77; MT WASHINGTON FOG 46 46 100 W36 N/A VSB 1/16 6HR MIN TEMP: 46; 6HR MAX TEMP: 50; $$ VTZ005-007-008-281900- VERMONT CITY SKY/WX TMP DP RH WIND PRES REMARKS ST JOHNSBURY N/A 77 50 38 MISG 29.90R MONTPELIER MOSUNNY 72 48 42 VRB5 29.98R BURLINGTON MOSUNNY 77 48 35 W8 29.92S $$ MAZ007-012-024-CTZ003-RIZ002-NYZ038-NYZ072-281900- SOUTHERN NEW ENGLAND AND NY CITY SKY/WX TMP DP RH WIND PRES REMARKS BOSTON PTSUNNY 73 62 68 SW8 29.95S WORCESTER SUNNY 74 58 57 W10 29.99R NANTUCKET MOSUNNY 57 53 86 SW17 30.01F PROVIDENCE MOSUNNY 70 61 73 S10 29.98R HARTFORD MOSUNNY 78 62 57 VRB5 29.96F ALBANY MOSUNNY 76 52 43 W10G16 29.97F NEW YORK CITY MOSUNNY 82 57 42 VRB6 29.98F $$ ANZ081-ANZ082-ANZ150-NHZ014-MEZ023>029-281900- COASTAL MARINE OBSERVATIONS STATION/POSITION TIME TEMP WIND PRES WAVE AIR SEA DIR/SP/G HT/PER (UTC) (F) (DEG/KT/KT) (MB) (FT/S) MOUNT DESERT ROC 1800 44 1015.0R MATINICUS ROCK 1700 47 140/ 3/ 4 1013.8F ISLE OF SHOALS 1700 53 130/ 8/ 9 1013.8F JEFFREYS LEDGE 1706 45 N/A 5/ 9 CASHES LEDGE BUO 1750 49 44 1014.0F 4/ 9 GEORGES BANK BUO 1650 51 43 1017.9 6/ 8 $$ .............KEY.............. WCI - WIND CHILL TC - TEMPERATURE IN CELSIUS VSB - VISIBILITY IN MILES HX - HEAT INDEX FAIR- INDICATES FEW OR NO CLOUDS BELOW 12,000 FT, WITH NO SIGNIFICANT WEATHER AND/OR OBSTRUCTIONS TO VISIBILITY.

USA.gov is the U.S. government's official web portal to all federal, state and local government web resources and services.